Richmond, VA

3:38 PM EST on December 05, 2019 (GMT -0500)
Richmond International

Weather History for KRIC - October, 2019

Change the Weather History Date:

Thursday, October 3, 2019

  Actual Average Record
Temperature  
Mean Temperature 83 °F 64 °F  
Max Temperature 97 °F 75 °F 94 °F (1919)
Min Temperature 69 °F 53 °F 31 °F (1974)
Degree Days  
Heating Degree Days 0 3  
Month to date heating degree days 0 9  
Since 1 July heating degree days 0 38  
Cooling Degree Days 18 2  
Month to date cooling degree days 51 8  
Year to date cooling degree days 2021 1512  
Growing Degree Days 33 (Base 50)    
Moisture  
Dew Point 68 °F    
Average Humidity 69    
Maximum Humidity 93    
Minimum Humidity 38    
Precipitation  
Precipitation 0.00 in 0.10 in 1.40 in (1985)
Month to date precipitation 0.00 0.29  
Year to date precipitation 33.15 34.41  
Snow  
Snow 0.00 in 0.00 in 0.00 in (2002)
Month to date snowfall 0.0 0.0  
Since 1 July snowfall 0.0 0.0  
Snow Depth 0.00 in    
Sea Level Pressure  
Sea Level Pressure 29.94 in    
Wind  
Wind Speed 4 mph ()    
Max Wind Speed 15 mph    
Max Gust Speed 19 mph    
Visibility 9.6 miles    
Events      
T = Trace of Precipitation, MM = Missing Value Source: Averaged Metar Reports

Daily Weather History Graph

Daily Weather History Graph

Search for Another Location

Airport or City:

Astronomy

Oct. 03, 2019 Rise Set
Actual Time 7:06 AM EDT 6:49 PM EDT
Civil Twilight 6:40 AM EDT 7:15 PM EDT
Nautical Twilight 6:09 AM EDT 7:46 PM EDT
Astronomical Twilight 5:39 AM EDT 8:16 PM EDT
Moon 12:29 PM EDT (10/3) 10:33 PM EDT (10/3)
Length of Visible Light 12h 35m
Length of Day
11h 43m
Waxing Crescent, 29% of the Moon is Illuminated
Oct 3
Waxing Crescent
Oct 5
First Quarter
Oct 13
Full
Oct 21
Last Quarter
Oct 27
New

Hourly Weather History & Observations

Time (EDT) Temp. Heat Index Dew Point Humidity Pressure Visibility Wind Dir Wind Speed Gust Speed Precip Events Conditions
12:54 AM 73.0 °F - 64.9 °F 76% 29.91 in 10.0 mi South 3.5 mph - N/A   Clear
1:54 AM 73.0 °F - 64.9 °F 76% 29.91 in 10.0 mi SW 4.6 mph - N/A   Clear
2:54 AM 73.9 °F - 64.9 °F 73% 29.91 in 10.0 mi Calm Calm - N/A   Clear
3:54 AM 70.0 °F - 64.0 °F 81% 29.91 in 10.0 mi SSW 4.6 mph - N/A   Clear
4:54 AM 70.0 °F - 64.0 °F 81% 29.92 in 10.0 mi South 3.5 mph - N/A   Clear
5:54 AM 69.1 °F - 64.9 °F 87% 29.94 in 10.0 mi SSE 4.6 mph - N/A   Clear
6:54 AM 70.0 °F - 64.0 °F 81% 29.96 in 10.0 mi Calm Calm - N/A   Partly Cloudy
7:54 AM 73.0 °F - 66.0 °F 79% 29.98 in 10.0 mi Calm Calm - N/A   Partly Cloudy
8:54 AM 80.1 °F 82.3 °F 66.9 °F 64% 29.99 in 10.0 mi North 3.5 mph - N/A   Partly Cloudy
9:54 AM 84.9 °F 87.6 °F 66.9 °F 55% 29.99 in 10.0 mi Calm Calm - N/A   Partly Cloudy
10:54 AM 90.0 °F 92.4 °F 66.0 °F 45% 29.98 in 10.0 mi NNW 6.9 mph - N/A   Partly Cloudy
11:54 AM 93.0 °F 95.9 °F 66.0 °F 41% 29.97 in 10.0 mi Calm Calm - N/A   Partly Cloudy
12:54 PM 93.9 °F 98.6 °F 68.0 °F 43% 29.96 in 10.0 mi Variable 6.9 mph - N/A   Partly Cloudy
1:54 PM 96.1 °F 99.9 °F 66.9 °F 38% 29.94 in 10.0 mi ENE 8.1 mph - N/A   Scattered Clouds
2:54 PM 96.1 °F 99.9 °F 66.9 °F 38% 29.92 in 10.0 mi ESE 5.8 mph - N/A   Scattered Clouds
3:54 PM 93.9 °F 97.5 °F 66.9 °F 41% 29.91 in 10.0 mi ENE 6.9 mph - N/A   Scattered Clouds
4:54 PM 91.0 °F 98.2 °F 72.0 °F 53% 29.91 in 10.0 mi East 12.7 mph - N/A   Scattered Clouds
5:54 PM 88.0 °F 94.7 °F 72.0 °F 59% 29.91 in 10.0 mi East 13.8 mph - N/A   Partly Cloudy
6:54 PM 82.0 °F 86.7 °F 72.0 °F 71% 29.93 in 10.0 mi ESE 11.5 mph - N/A   Scattered Clouds
7:54 PM 79.0 °F - 72.0 °F 79% 29.95 in 10.0 mi ESE 9.2 mph - N/A   Partly Cloudy
8:54 PM 75.9 °F - 71.1 °F 85% 29.96 in 10.0 mi ESE 5.8 mph - N/A   Clear
9:54 PM 73.9 °F - 71.1 °F 91% 29.96 in 10.0 mi SE 5.8 mph - N/A   Clear
10:54 PM 73.0 °F - 71.1 °F 93% 29.95 in 8.0 mi SE 5.8 mph - N/A   Partly Cloudy
11:38 PM 73.0 °F - 71.1 °F 93% 29.94 in 7.0 mi ESE 3.5 mph - N/A   Scattered Clouds
11:54 PM 73.0 °F - 71.1 °F 93% 29.96 in 6.0 mi Calm Calm - N/A   Scattered Clouds